Wenatchee, WA

1:45 AM PDT on April 25, 2017 (GMT -0700)
Pangborn Memorial

Weather History for KEAT - July, 2014

Change the Weather History Date:

Tuesday, July 15, 2014

  Actual Average Record
Temperature  
Mean Temperature 75 °F 67 °F  
Max Temperature 91 °F 83 °F 102 °F (1996)
Min Temperature 59 °F 51 °F 43 °F (2013)
Degree Days  
Heating Degree Days 0 1  
Month to date heating degree days 0 38  
Since 1 June heating degree days 191 225  
Since 1 July heating degree days 0 38  
Cooling Degree Days 10 3  
Month to date cooling degree days 123 38  
Year to date cooling degree days 123 62  
Since 1 June cooling degree days 123 57  
Growing Degree Days 38 (Base 50)    
Moisture  
Dew Point 49 °F    
Average Humidity 31    
Maximum Humidity 59    
Minimum Humidity 10    
Precipitation  
Precipitation 0.00 in 0.01 in 0.04 in (2012)
Month to date precipitation 0.97 0.36  
Year to date precipitation 10.72 9.74  
Snow  
Snow 0.00 in 0.00 in - ()
Month to date snowfall 0.0 0.0  
Since 1 June snowfall 0.0 0.0  
Since 1 July snowfall 0.0 0.0  
Snow Depth 0.00 in    
Sea Level Pressure  
Sea Level Pressure 29.92 in    
Wind  
Wind Speed 7 mph (West)    
Max Wind Speed 15 mph    
Max Gust Speed -    
Visibility 10 miles    
Events      
T = Trace of Precipitation, MM = Missing Value Source: NWS Daily Summary

Daily Weather History Graph

Daily Weather History Graph

Search for Another Location

Airport or City:

Trip Planner

Search our weather history database for the weather conditions in past years. The results will help you decide how hot, cold, wet, or windy it might be!

Date:

Astronomy

Jul. 15, 2014 Rise Set
Actual Time 5:19 AM PDT 8:53 PM PDT
Civil Twilight 4:41 AM PDT 9:31 PM PDT
Nautical Twilight 3:49 AM PDT 10:23 PM PDT
Astronomical Twilight 2:39 AM PDT 11:32 PM PDT
Moon 10:42 PM PDT (7/15) 9:39 AM PDT (7/15)
Length of Visible Light 16h 50m
Length of Day
15h 33m
Waning Gibbous, 84% of the Moon is Illuminated
Jul 15
Waning Gibbous
Jul 18
Last Quarter
Jul 26
New
Aug 3
First Quarter
Aug 10
Full

Hourly Weather History & Observations

Time (PDT) Temp. Heat Index Dew Point Humidity Pressure Visibility Wind Dir Wind Speed Gust Speed Precip Events Conditions
12:55 AM 79.0 °F - 53.1 °F 40% 29.96 in 10.0 mi NW 8.1 mph - N/A   Clear
1:55 AM 75.9 °F - 55.0 °F 48% 29.97 in 10.0 mi West 3.5 mph - N/A   Clear
2:55 AM 75.0 °F - 55.9 °F 51% 29.98 in 10.0 mi NW 5.8 mph - N/A   Clear
3:55 AM 73.9 °F - 55.0 °F 52% 29.98 in 10.0 mi West 6.9 mph - N/A   Clear
4:55 AM 75.0 °F - 55.9 °F 51% 29.98 in 10.0 mi WNW 6.9 mph - N/A   Clear
5:55 AM 71.1 °F - 55.9 °F 59% 29.99 in 10.0 mi West 6.9 mph - N/A   Clear
6:55 AM 75.0 °F - 55.9 °F 51% 29.99 in 10.0 mi WSW 6.9 mph - N/A   Clear
7:55 AM 77.0 °F - 55.9 °F 48% 29.99 in 10.0 mi West 6.9 mph - N/A   Clear
8:55 AM 79.0 °F - 55.0 °F 44% 30.00 in 10.0 mi WSW 9.2 mph - N/A   Clear
9:55 AM 82.0 °F 81.3 °F 54.0 °F 38% 29.99 in 10.0 mi WSW 3.5 mph - N/A   Clear
10:55 AM 88.0 °F 85.7 °F 53.1 °F 30% 29.98 in 10.0 mi Calm Calm - N/A   Clear
11:55 AM 91.9 °F - 51.1 °F 25% 29.95 in 10.0 mi Variable 3.5 mph - N/A   Clear
1:55 PM 99.0 °F - 46.0 °F 16% 29.91 in 10.0 mi Variable 4.6 mph - N/A   Clear
2:55 PM 100.9 °F - 42.1 °F 13% 29.88 in 10.0 mi Variable 3.5 mph - N/A   Clear
3:55 PM 102.0 °F - 39.0 °F 11% 29.86 in 10.0 mi SW 5.8 mph - N/A   Clear
4:55 PM 105.1 °F - 39.0 °F 10% 29.84 in 10.0 mi West 9.2 mph - N/A   Clear
5:55 PM 104.0 °F - 37.9 °F 10% 29.82 in 10.0 mi SW 6.9 mph - N/A   Clear
6:55 PM 100.9 °F - 42.1 °F 13% 29.81 in 9.0 mi WNW 15.0 mph - N/A   Clear
7:55 PM 98.1 °F - 42.1 °F 15% 29.83 in 10.0 mi WNW 9.2 mph - N/A   Clear
8:55 PM 93.9 °F - 45.0 °F 18% 29.83 in 10.0 mi WNW 11.5 mph - N/A   Clear
9:55 PM 93.0 °F - 45.0 °F 19% 29.85 in 10.0 mi WNW 12.7 mph - N/A   Clear
10:55 PM 91.0 °F - 48.0 °F 23% 29.85 in 10.0 mi WNW 12.7 mph - N/A   Clear
11:55 PM 88.0 °F - 50.0 °F 27% 29.86 in 10.0 mi NW 13.8 mph - N/A   Clear